Find Starlink 30708

NORAD ID: 57944 Int'l Des: 2023-148 Owner: SPXS Country: US Constellation: starlink operational
LEOCIRCULAR

Current View

Loading 3D Globe...

About Starlink 30708

Starlink 30708 (NORAD 57944) is a starlink constellation satellite (v2 mini) launched Sep 25, 2023 by SPXS of US. It operates in LEO, CIRCULAR orbit with a mass of 730.00 kg.

About Starlink 30708

Description loading...

Upcoming Passes

Passes for default location (London). Set your location on the main map for personalized predictions.

Altitude History

Loading altitude history...

Two-Line Element Set

1 57944U 23148K 26174.93362711 .00001185 00000-0 46203-4 0 9993
2 57944 53.1603 249.7380 0001139 92.8561 267.2572 15.34388573154702
Epoch: Jun 23, 2026 • Age: 39 hours

Current Status

Altitude 463.0 km
Velocity 7.64 km/s
Sub-Earth Point 6.11°N, 130.16°E
Launch Date Sep 25, 2023
Age 2.7 years
Type internet

Technical Details

Classification Payload
Mass 730.00 kg
Dry Mass 700.00 kg
Total Mass 730.00 kg
Length 0.30 m
Diameter 4.10 m
Span 29.00 m
Shape Box + pan
Manufacturer SPXS
Bus Type Starlink V2M
Phase Status In Orbit
Owner/State SPXS/US

Most Searched